FW1241 Weather Reports


Display with metric or nautical units.
time (UTC)temp
F
wind
direction
speed
MPH
gust
MPH
rain 1hr
in
rain 24hr
in
rain mn
in
humidity
%
barometer
mb
20260503202105 72 316 2.0 3.0 0.00 0.00 0.00 57 1010.5
20260503201105 72 254 0.0 3.0 0.00 0.00 0.00 59 1010.6
20260503200605 71 302 0.0 2.0 0.00 0.00 0.00 59 1010.6
20260503200105 71 215 0.0 1.0 0.00 0.00 0.00 61 1010.7
20260503195605 71 358 1.0 3.0 0.00 0.00 0.00 60 1010.9
20260503194605 71 311 2.0 3.0 0.00 0.00 0.00 60 1011.1
20260503194105 70 298 0.0 3.0 0.00 0.00 0.00 62 1011.1
20260503193105 70 312 0.0 1.0 0.00 0.00 0.00 62 1011.3
20260503191605 68 302 1.0 2.0 0.00 0.00 0.00 64 1011.6
20260503191104 69 336 0.0 2.0 0.00 0.00 0.00 64 1011.7
20260503190605 69 62 0.0 1.0 0.00 0.00 0.00 65 1011.7
20260503185605 68 305 0.0 1.0 0.00 0.00 0.00 64 1011.8
20260503184604 68 319 1.0 3.0 0.00 0.00 0.00 66 1011.9
20260503183105 68 311 1.0 1.0 0.00 0.00 0.00 67 1011.8
20260503182605 68 310 1.0 3.0 0.00 0.00 0.00 66 1011.9
20260503181605 68 143 1.0 2.0 0.00 0.00 0.00 67 1011.9
20260503180604 67 105 0.0 0.0 0.00 0.00 0.00 69 1012.0
20260503174604 65 175 0.0 1.0 0.00 0.00 0.00 73 1012.1
20260503174105 65 215 0.0 1.0 0.00 0.00 0.00 74 1012.0
20260503171104 63 99 0.0 0.0 0.00 0.00 0.00 77 1012.1
20260503170605 63 99 0.0 1.0 0.00 0.00 0.00 77 1012.0
20260503150605 59 297 0.0 1.0 0.00 0.00 0.00 84 1010.9
20260503150104 58 172 0.0 2.0 0.00 0.00 0.00 85 1010.8
20260503140104 55 163 0.0 0.0 0.00 0.00 0.00 92 1010.2
20260503131105 55 114 0.0 1.0 0.00 0.00 0.00 91 1009.2
20260503120105 56 159 0.0 0.0 0.00 0.00 0.00 90 1008.6
20260503110104 59 163 0.0 0.0 0.00 0.00 0.00 89 1008.6
20260503081604 64 351 0.0 0.0 0.00 0.00 0.00 80 1007.7
20260503080605 65 351 0.0 0.0 0.00 0.00 0.00 78 1007.8
20260503080105 65 351 0.0 0.0 0.00 0.00 0.00 78 1007.9
20260503072605 65 322 0.0 0.0 0.00 0.00 0.00 79 1007.5
20260503071106 66 322 0.0 0.0 0.00 0.00 0.00 77 1007.4
20260503070604 66 322 0.0 0.0 0.00 0.00 0.00 77 1007.4
20260503070105 66 322 0.0 0.0 0.00 0.00 0.00 77 1007.4
20260503054605 71 285 0.0 0.0 0.00 0.00 0.00 67 1007.3
20260503053605 71 285 0.0 1.0 0.00 0.00 0.00 65 1007.3
20260503053105 71 285 0.0 1.0 0.00 0.00 0.00 64 1007.3
20260503052104 72 326 0.0 0.0 0.00 0.00 0.00 59 1007.3
20260503051605 73 326 0.0 0.0 0.00 0.00 0.00 58 1007.3
20260503051105 73 326 0.0 0.0 0.00 0.00 0.00 57 1007.2
20260503050105 74 324 0.0 1.0 0.00 0.00 0.00 55 1007.2
20260503045105 74 340 0.0 1.0 0.00 0.00 0.00 52 1007.1
20260503044604 74 6 0.0 1.0 0.00 0.00 0.00 52 1007.0
20260503043104 74 284 0.0 0.0 0.00 0.00 0.00 47 1006.7
20260503042604 74 284 0.0 0.0 0.00 0.00 0.00 46 1006.5
20260503041605 75 284 0.0 0.0 0.00 0.00 0.00 44 1006.3
20260503041105 75 284 0.0 0.0 0.00 0.00 0.00 44 1006.2
20260503040105 75 284 0.0 0.0 0.00 0.00 0.00 43 1006.1
20260503035605 75 284 0.0 1.0 0.00 0.00 0.00 42 1006.0
20260503035105 75 285 0.0 0.0 0.00 0.00 0.00 40 1005.9
20260503033104 76 294 0.0 1.0 0.00 0.00 0.00 41 1005.7
20260503032605 77 291 0.0 1.0 0.00 0.00 0.00 39 1005.7
20260503032105 77 294 0.0 1.0 0.00 0.00 0.00 39 1005.6
20260503031604 78 294 0.0 1.0 0.00 0.00 0.00 40 1005.6
20260503031105 78 290 1.0 5.0 0.00 0.00 0.00 39 1005.6
20260503030605 78 298 0.0 2.0 0.00 0.00 0.00 41 1005.6
20260503030106 79 278 0.0 1.0 0.00 0.00 0.00 40 1005.5
20260503025604 79 296 0.0 1.0 0.00 0.00 0.00 39 1005.4
20260503025104 79 297 0.0 0.0 0.00 0.00 0.00 39 1005.4
20260503024604 79 297 0.0 0.0 0.00 0.00 0.00 39 1005.4
20260503020105 84 295 0.0 1.0 0.00 0.00 0.00 32 1005.3
20260503015104 86 297 0.0 1.0 0.00 0.00 0.00 32 1005.4
20260503014604 87 294 0.0 2.0 0.00 0.00 0.00 30 1005.4
20260503012605 88 296 1.0 2.0 0.00 0.00 0.00 26 1005.5
20260503012105 89 303 1.0 2.0 0.00 0.00 0.00 26 1005.5
20260503011105 89 282 0.0 1.0 0.00 0.00 0.00 26 1005.5
20260503010105 90 313 1.0 3.0 0.00 0.00 0.00 23 1005.5
20260503001605 91 222 0.0 1.0 0.00 0.00 0.00 22 1005.6
20260503001105 90 172 0.0 0.0 0.00 0.00 0.00 24 1005.7
20260503000105 90 303 1.0 2.0 0.00 0.00 0.00 24 1005.8
20260502235604 90 311 0.0 2.0 0.00 0.00 0.00 23 1005.7
20260502235105 90 279 1.0 3.0 0.00 0.00 0.00 23 1005.8
20260502234105 90 287 1.0 3.0 0.00 0.00 0.00 23 1005.9
20260502232604 90 311 1.0 3.0 0.00 0.00 0.00 24 1006.1
20260502232105 90 309 0.0 2.0 0.00 0.00 0.00 25 1006.1
20260502230605 90 322 1.0 3.0 0.00 0.00 0.00 24 1006.4
20260502225605 90 285 1.0 3.0 0.00 0.00 0.00 23 1006.6
20260502224606 90 86 0.0 1.0 0.00 0.00 0.00 26 1006.8
20260502223604 90 251 1.0 3.0 0.00 0.00 0.00 26 1007.1
20260502222604 89 331 1.0 3.0 0.00 0.00 0.00 25 1007.4
20260502215105 89 298 1.0 5.0 0.00 0.00 0.00 26 1008.0
20260502214606 89 299 1.0 2.0 0.00 0.00 0.00 25 1008.1
20260502214104 89 14 0.0 6.0 0.00 0.00 0.00 26 1008.2
20260502213604 89 225 0.0 1.0 0.00 0.00 0.00 27 1008.2
20260502212605 88 292 0.0 2.0 0.00 0.00 0.00 23 1008.4
20260502211605 87 306 0.0 3.0 0.00 0.00 0.00 25 1008.7
20260502211104 87 288 1.0 3.0 0.00 0.00 0.00 27 1008.7
20260502210605 87 298 0.0 3.0 0.00 0.00 0.00 27 1008.8
20260502210104 87 279 0.0 3.0 0.00 0.00 0.00 28 1008.9
20260502205105 87 296 0.0 3.0 0.00 0.00 0.00 29 1009.1
20260502203604 87 319 0.0 1.0 0.00 0.00 0.00 30 1009.4
20260502203105 88 303 0.0 2.0 0.00 0.00 0.00 28 1009.4